This demonstration page uses our WeatherBlox Daily Observations layout. Learn more.

Left ArrowRight Arrow

Hourly Observations for July 15, 2016

Temp ( °F °C ) Dew Point ( °F °C ) Humidity (%) Winds ( mph kmh ) Pressure ( in mb ) Visibility ( mi km ) Precip ( " mm )
12:59 am 00:59 Clear 85 29.4 75 23.9 72 72 SW 7 11 29.95 1014 9 14 0.00 0.00
1:59 am 01:59 Clear 83 28.3 75 23.9 77 77 SSW 9 15 29.94 1014 9 14 0.00 0.00
2:59 am 02:59 Clear 82 27.8 74 23.3 77 77 SW 8 13 29.94 1014 9 14 0.00 0.00
3:59 am 03:59 Clear 81 27.2 74 23.3 79 79 SW 10 17 29.94 1014 9 14 0.00 0.00
4:59 am 04:59 Mostly Clear 81 27.2 74 23.3 79 79 SW 10 17 29.94 1014 9 14 0.00 0.00
5:59 am 05:59 Mostly Sunny 80 26.7 73 22.8 79 79 SW 9 15 29.95 1014 9 14 0.00 0.00
6:59 am 06:59 Mostly Sunny 80 26.7 74 23.3 82 82 SW 8 13 29.97 1015 8 13 0.00 0.00
7:59 am 07:59 Mostly Sunny 82 27.8 74 23.3 77 77 SW 8 13 29.98 1015 8 13 0.00 0.00
8:59 am 08:59 Mostly Sunny 84 28.9 75 23.9 74 74 SW 7 11 29.98 1015 8 13 0.00 0.00
9:59 am 09:59 Mostly Sunny 87 30.6 75 23.9 67 67 SW 6 9 29.97 1015 8 13 0.00 0.00
10:59 am 10:59 Mostly Sunny 89 31.7 76 24.4 65 65 SW 8 13 29.97 1015 8 13 0.00 0.00
11:59 am 11:59 Mostly Sunny 90 32.2 77 25 66 66 WNW 9 15 29.98 1015 8 13 0.00 0.00
12:59 pm 12:59 Mostly Sunny 92 33.3 77 25 62 62 SW 7 11 29.96 1015 8 13 0.00 0.00
1:59 pm 13:59 Partly Cloudy 93 33.9 77 25 60 60 W 10 17 29.96 1014 8 13 0.00 0.00
2:59 pm 14:59 Partly Cloudy 93 33.9 76 24.4 58 58 W 12 19 29.95 1014 8 13 0.00 0.00
3:59 pm 15:59 Partly Cloudy 94 34.4 75 23.9 54 54 W 13 20 29.93 1013 9 14 0.00 0.00
4:59 pm 16:59 Partly Cloudy 94 34.4 73 22.8 51 51 W 13 20 29.90 1013 9 14 0.00 0.00
5:59 pm 17:59 Partly Cloudy with Thunderstorms 87 30.6 75 23.9 67 67 N 20 31 29.94 1014 8 13 0.00 0.00
6:59 pm 18:59 Cloudy with Thunderstorms 79 26.1 72 22.2 79 79 ENE 14 22 29.98 1015 8 13 0.00 0.00
7:59 pm 19:59 Mostly Cloudy 79 26.1 69 20.6 72 72 S 7 11 29.97 1015 10 16 0.00 0.00
8:42 pm 20:42 Mostly Cloudy with Thunderstorms 78 25.6 70 21.1 76 76 S 10 17 30.03 1017 10 16 0.00 0.03
8:59 pm 20:59 Mostly Cloudy with Light Rain 77 25 71 21.7 82 82 S 9 15 30.02 1017 8 13 0.00 0.03
9:59 pm 21:59 Cloudy with Thunderstorms 76 24.4 71 21.7 85 85 SSW 8 13 30.01 1016 10 16 0.00 0.03
10:25 pm 22:25 Mostly Cloudy with Light Rain 77 25 69 20.6 77 77 SSW 10 17 30.00 1016 10 16 0.00 0.03
10:59 pm 22:59 Mostly Cloudy with Light Rain 75 23.9 70 21.1 84 84 SSW 9 15 30.03 1017 7 11 0.01 0.25
11:59 pm 23:59 Mostly Cloudy with Light Rain 75 23.9 72 22.2 90 90 W 12 19 30.06 1018 9 14 0.01 0.25

Powered by AerisWeather